When you browse on this site, cookies collect data to enhance your experience and personalize the content and advertising you see.
Visit our Privacy Policy to learn more. By continuing to use the site, you agree to this use of cookies and data.
  • In Lithuania
  • List of Countries
  • For 7 days
  • Water Temperature
  • Weather Map
  • Weather Widgets
  • user-avatar
    Login

    Hourly Weather Canillo

    Today, 18 November, Monday

    Time Temperature Precipitation Wind Pressure Humidity
    00:00 -3°C° 0 mm 1 mps 608 mmHg 93%
    01:00 -2°C° 0.2 mm 1 mps 608 mmHg 94%
    02:00 -2°C° 0.2 mm 1 mps 608 mmHg 94%
    03:00 -2°C° 0.2 mm 1 mps 608 mmHg 94%
    04:00 -2°C° 0.4 mm 1 mps 608 mmHg 95%
    05:00 -4°C° 0.4 mm 2 mps 609 mmHg 95%
    06:00 -5°C° 0.4 mm 2 mps 609 mmHg 95%
    07:00 -4°C° 0.6 mm 2 mps 610 mmHg 92%
    08:00 -3°C° 0.6 mm 2 mps 610 mmHg 90%
    09:00 -2°C° 0.6 mm 2 mps 611 mmHg 87%
    10:00 -2°C° 0.3 mm 2 mps 611 mmHg 86%
    11:00 -2°C° 0.3 mm 2 mps 611 mmHg 84%
    12:00 -2°C° 0.3 mm 2 mps 612 mmHg 82%
    13:00 -2°C° 0.1 mm 2 mps 611 mmHg 83%
    14:00 -3°C° 0.1 mm 2 mps 611 mmHg 84%
    15:00 -3°C° 0.1 mm 2 mps 611 mmHg 85%
    16:00 -4°C° 0 mm 2 mps 611 mmHg 88%
    17:00 -6°C° 0 mm 2 mps 610 mmHg 90%
    18:00 -8°C° 0 mm 3 mps 610 mmHg 93%
    19:00 -8°C° 0.1 mm 3 mps 610 mmHg 92%
    20:00 -7°C° 0.1 mm 2 mps 611 mmHg 92%
    21:00 -7°C° 0.1 mm 2 mps 611 mmHg 91%
    22:00 -8°C° 0 mm 2 mps 611 mmHg 89%
    23:00 -8°C° 0 mm 2 mps 611 mmHg 88%

    Tomorrow, 19 November, Tuesday

    Time Temperature Precipitation Wind Pressure Humidity
    00:00 -8°C° 0 mm 2 mps 611 mmHg 86%
    01:00 -8°C° 0 mm 2 mps 611 mmHg 83%
    02:00 -8°C° 0 mm 2 mps 610 mmHg 80%
    03:00 -8°C° 0 mm 2 mps 610 mmHg 76%
    04:00 -9°C° 0 mm 2 mps 610 mmHg 75%
    05:00 -9°C° 0 mm 2 mps 610 mmHg 73%
    06:00 -9°C° 0 mm 2 mps 610 mmHg 72%
    07:00 -6°C° 0 mm 1 mps 611 mmHg 70%
    08:00 -3°C° 0 mm 1 mps 612 mmHg 68%
    09:00 -1°C° 0 mm 1 mps 613 mmHg 66%
    10:00 0°C° 0 mm 1 mps 613 mmHg 64%
    11:00 +1°C° 0 mm 1 mps 614 mmHg 62%
    12:00 +2°C° 0 mm 1 mps 614 mmHg 60%
    13:00 +2°C° 0 mm 1 mps 614 mmHg 64%
    14:00 +2°C° 0 mm 1 mps 613 mmHg 68%
    15:00 +1°C° 0 mm 1 mps 613 mmHg 72%
    16:00 -1°C° 0 mm 1 mps 612 mmHg 74%
    17:00 -3°C° 0 mm 1 mps 612 mmHg 77%
    18:00 -6°C° 0 mm 1 mps 611 mmHg 79%
    19:00 -6°C° 0 mm 1 mps 611 mmHg 79%
    20:00 -6°C° 0 mm 1 mps 611 mmHg 78%
    21:00 -6°C° 0 mm 1 mps 612 mmHg 77%
    22:00 -6°C° 0 mm 1 mps 611 mmHg 75%
    23:00 -6°C° 0 mm 1 mps 611 mmHg 74%

    Day after tomorrow, 20 November, Wednesday

    Time Temperature Precipitation Wind Pressure Humidity
    00:00 -6°C° 0 mm 1 mps 611 mmHg 72%
    01:00 -6°C° 0 mm 1 mps 611 mmHg 71%
    02:00 -7°C° 0 mm 2 mps 610 mmHg 71%
    03:00 -7°C° 0 mm 2 mps 610 mmHg 71%
    04:00 -7°C° 0 mm 2 mps 610 mmHg 70%
    05:00 -7°C° 0 mm 2 mps 610 mmHg 69%
    06:00 -7°C° 0 mm 2 mps 610 mmHg 69%
    07:00 -6°C° 0 mm 2 mps 610 mmHg 67%
    08:00 -5°C° 0 mm 2 mps 611 mmHg 65%
    09:00 -3°C° 0 mm 2 mps 612 mmHg 64%
    10:00 -2°C° 0 mm 2 mps 612 mmHg 64%
    11:00 -1°C° 0 mm 2 mps 612 mmHg 65%
    12:00 0°C° 0 mm 3 mps 612 mmHg 65%
    13:00 +1°C° 0 mm 2 mps 611 mmHg 68%
    14:00 -1°C° 0 mm 2 mps 611 mmHg 71%
    15:00 -1°C° 0 mm 2 mps 610 mmHg 74%
    16:00 -3°C° 0 mm 2 mps 610 mmHg 79%
    17:00 -4°C° 0 mm 2 mps 609 mmHg 83%
    18:00 -6°C° 0 mm 2 mps 609 mmHg 87%
    19:00 -6°C° 0 mm 2 mps 609 mmHg 88%
    20:00 -6°C° 0 mm 2 mps 609 mmHg 89%
    21:00 -5°C° 0 mm 2 mps 609 mmHg 89%
    22:00 -5°C° 0 mm 2 mps 609 mmHg 90%
    23:00 -5°C° 0 mm 2 mps 609 mmHg 91%

    21 November, Thursday

    Time Temperature Precipitation Wind Pressure Humidity
    00:00 -4°C° 0 mm 2 mps 609 mmHg 93%
    01:00 -4°C° 0 mm 2 mps 609 mmHg 93%
    02:00 -4°C° 0 mm 2 mps 609 mmHg 93%
    03:00 -4°C° 0 mm 2 mps 609 mmHg 94%
    04:00 -4°C° 0 mm 2 mps 609 mmHg 94%
    05:00 -5°C° 0 mm 2 mps 609 mmHg 94%
    06:00 -5°C° 0 mm 2 mps 609 mmHg 94%
    07:00 -4°C° 0 mm 2 mps 609 mmHg 91%
    08:00 -2°C° 0 mm 2 mps 610 mmHg 88%
    09:00 -1°C° 0 mm 2 mps 611 mmHg 85%
    10:00 +1°C° 0 mm 2 mps 611 mmHg 83%
    11:00 +2°C° 0 mm 2 mps 611 mmHg 80%
    12:00 +3°C° 0 mm 2 mps 611 mmHg 77%
    13:00 +2°C° 0 mm 2 mps 611 mmHg 80%
    14:00 +2°C° 0 mm 2 mps 610 mmHg 83%
    15:00 +1°C° 0 mm 2 mps 610 mmHg 85%
    16:00 -1°C° 0 mm 2 mps 610 mmHg 87%
    17:00 -2°C° 0 mm 2 mps 610 mmHg 89%
    18:00 -3°C° 0 mm 2 mps 609 mmHg 91%
    19:00 -3°C° 0 mm 2 mps 610 mmHg 91%
    20:00 -2°C° 0 mm 2 mps 610 mmHg 91%
    21:00 -2°C° 0 mm 2 mps 610 mmHg 92%
    22:00 -2°C° 0.1 mm 2 mps 610 mmHg 93%
    23:00 -2°C° 0.1 mm 2 mps 610 mmHg 94%

    22 November, Friday

    Time Temperature Precipitation Wind Pressure Humidity
    00:00 -1°C° 0.1 mm 3 mps 610 mmHg 95%
    01:00 -1°C° 0.4 mm 2 mps 609 mmHg 95%
    02:00 -1°C° 0.4 mm 2 mps 609 mmHg 96%
    03:00 -1°C° 0.4 mm 2 mps 609 mmHg 96%
    04:00 -1°C° 1 mm 2 mps 608 mmHg 96%
    05:00 -1°C° 1 mm 2 mps 608 mmHg 97%
    06:00 -1°C° 1 mm 2 mps 608 mmHg 97%
    07:00 -1°C° 1.7 mm 2 mps 608 mmHg 97%
    08:00 -1°C° 1.7 mm 2 mps 608 mmHg 97%
    09:00 +1°C° 1.7 mm 2 mps 608 mmHg 97%
    10:00 +1°C° 0.8 mm 2 mps 608 mmHg 96%
    11:00 +1°C° 0.8 mm 2 mps 608 mmHg 96%
    12:00 +2°C° 0.8 mm 2 mps 608 mmHg 96%
    13:00 +2°C° 0.3 mm 1 mps 608 mmHg 96%
    14:00 +2°C° 0.3 mm 1 mps 607 mmHg 97%
    15:00 +2°C° 0.3 mm 1 mps 607 mmHg 98%
    16:00 +2°C° 0.1 mm 1 mps 607 mmHg 98%
    17:00 +2°C° 0.1 mm 1 mps 607 mmHg 98%
    18:00 0°C° 0.1 mm 0 mps 607 mmHg 98%
    19:00 0°C° 0 mm 0 mps 607 mmHg 98%
    20:00 0°C° 0 mm 0 mps 607 mmHg 97%
    21:00 +1°C° 0 mm 1 mps 607 mmHg 97%
    22:00 0°C° 0.1 mm 1 mps 607 mmHg 97%
    23:00 0°C° 0.1 mm 1 mps 607 mmHg 96%

    23 November, Saturday

    Time Temperature Precipitation Wind Pressure Humidity
    00:00 0°C° 0.1 mm 1 mps 607 mmHg 96%
    01:00 -2°C° 0.7 mm 2 mps 607 mmHg 96%
    02:00 -3°C° 0.7 mm 2 mps 607 mmHg 96%
    03:00 -3°C° 0.7 mm 2 mps 607 mmHg 96%
    04:00 -3°C° 0.4 mm 2 mps 608 mmHg 95%
    05:00 -4°C° 0.4 mm 2 mps 608 mmHg 95%
    06:00 -4°C° 0.4 mm 2 mps 608 mmHg 95%
    07:00 -3°C° 0.3 mm 2 mps 609 mmHg 94%
    08:00 -4°C° 0.3 mm 3 mps 610 mmHg 93%
    09:00 -2°C° 0.3 mm 3 mps 610 mmHg 92%
    10:00 -2°C° 0.2 mm 3 mps 611 mmHg 89%
    11:00 -1°C° 0.2 mm 3 mps 611 mmHg 87%
    12:00 -1°C° 0.2 mm 3 mps 611 mmHg 85%
    13:00 -1°C° 0.2 mm 3 mps 611 mmHg 86%
    14:00 -1°C° 0.2 mm 3 mps 611 mmHg 87%
    15:00 -2°C° 0.2 mm 3 mps 611 mmHg 87%
    16:00 -4°C° 0.1 mm 3 mps 612 mmHg 89%
    17:00 -5°C° 0.1 mm 3 mps 612 mmHg 91%
    18:00 -5°C° 0.1 mm 3 mps 613 mmHg 93%
    19:00 -5°C° 0 mm 2 mps 613 mmHg 93%
    20:00 -5°C° 0 mm 2 mps 614 mmHg 92%
    21:00 -5°C° 0 mm 2 mps 614 mmHg 92%
    22:00 -5°C° 0 mm 2 mps 614 mmHg 90%
    23:00 -6°C° 0 mm 2 mps 614 mmHg 87%
    Show more